カタログに戻る

STARLINK-36222

運用中通信VLEO
NORAD 67097·PAYLOAD·🇺🇸 United States

打ち上げ Dec 14, 2025 から Vandenberg Space Force Base

Loading…

次のパス (今後24時間)

TLE

最新Source: CelesTrak SupGP

元期: Sep 14, 2026, 21:03 UTC

1 67097C 25298Y   26257.87756944  .00073476  00000+0  61575-2 0  2576
2 67097  69.9995 257.5648 0003865 263.8628  64.5701 14.98291998    16

AllMySatでSTARLINK-36222をリアルタイム追跡

Download on the App Store